Regional Weather Roundup
Issued by NWS

Home | Current Version | Previous Version | Text Only | Print | Product List | Glossary On
Versions: 1 2 3 4 5 6 7 8 9 10 11 12 13 14 15 16 17 18 19 20 21 22 23 24 25 26 27 28
000
ASUS45 KSLC 180210
RWRUT

UTAH REGIONAL WEATHER ROUNDUP
NATIONAL WEATHER SERVICE SALT LAKE CITY UT
700 PM MST WED JAN 17 2018

UTZ001>011-023>025-180300-

NORTHERN UTAH

CITY           SKY/WX    TMP DP  RH WIND       PRES   REMARKS
BRIGHAM CITY   PTCLDY    36  30  78 CALM      30.36S
HILL AFB       PTCLDY    37  28  72 E7        30.35S WCI  31
LOGAN          PTCLDY    40  28  62 S3        30.35F
OGDEN          CLEAR     37  29  72 SE5       30.34F WCI  33
SALT LAKE CITY MOCLDY    39  31  72 W3        30.36S
TOOELE VALLEY  PTCLDY    28  28 100 S3        30.37S
WENDOVER       PTCLDY    37  28  70 CALM      30.35F
HEBER CITY       N/A     32  25  74 E7        30.35R WCI  26
WEST JORDAN    PTCLDY    35  30  80 CALM      30.37S

$$

UTZ011>015-024>027-180300-

CENTRAL/NORTHEAST UTAH

CITY           SKY/WX    TMP DP  RH WIND       PRES   REMARKS
PROVO AIRPORT  PTCLDY    34  24  67 CALM      30.37R
MOAB/CANYONLAN   N/A    N/A N/A N/A MISG      30.35
DELTA          PTCLDY    36  30  80 S3        30.36R
PRICE          PTCLDY    30  20  66 N9        30.36S WCI  22
RICHFIELD      CLEAR     41  28  60 CALM      30.36R
ROOSEVELT      PTCLDY    27  14  59 W3        30.40S
VERNAL         PTCLDY    29  13  51 NW3       30.37S

$$

UTZ013>016-019>022-027-180300-

SOUTHERN UTAH

CITY           SKY/WX    TMP DP  RH WIND       PRES   REMARKS
BRYCE CANYON   PTCLDY    34  24  67 CALM      30.38R
CEDAR CITY     PTCLDY    38  30  73 SE7       30.33S WCI  33
MILFORD        CLEAR     36  29  75 N5        30.33S WCI  32
ST GEORGE      CLEAR     51  33  50 SE3       30.28R
HANKSVILLE     PTCLDY    34  14  44 CALM      30.39R
KANAB          CLEAR     46  25  42 N6        30.37R
BLANDING         N/A     32  20  59 N7        30.38F WCI  26

$$

REGIONAL REPORTS     COLORADO/ARIZONA

CITY           SKY/WX    TMP DP  RH WIND       PRES   REMARKS
CRAIG, CO      CLEAR     19   9  65 SE5       30.37R WCI  12
GRAND JUNCTION CLEAR     29  14  53 CALM      30.36R
RIFLE, CO      CLEAR     31  15  52 SE3       30.36R
MONTROSE, CO   CLEAR     28  12  51 S8        30.38R WCI  20
CORTEZ, CO     CLEAR     27  18  69 NE8       30.32R WCI  19
COLORADO CITY    N/A     41  30  65 E3        30.34R
PAGE, AZ       PTCLDY    44  20  38 SW3       30.33R
GRAND CANYON   PTCLDY    29  21  72 CALM      30.35S
KINGMAN, AZ    CLEAR     53  31  42 E7        30.26R
FLAGSTAFF, AZ  PTCLDY    37  18  46 E7        30.34R WCI  32

$$

REGIONAL REPORTS    NEVADA/IDAHO/WYOMING

CITY           SKY/WX    TMP DP  RH WIND       PRES   REMARKS
LAS VEGAS, NV  MOCLDY    63  36  36 S3        30.24R
ELY, NY        PTCLDY    39  26  59 E3        30.35R
ELKO, NV       MOCLDY    36  31  82 CALM      30.29S
POCATELLO, ID  MOCLDY    33  28  81 NE3       30.32F
BURLEY, ID     PTCLDY    35  30  82 NE5       30.26F WCI  31
FORT BRIDGER,    N/A     33  26  73 W12       30.37S WCI  25
EVANSTON, WY   CLEAR     30  24  78 W8        30.36R WCI  22
ROCK SPRINGS,  CLEAR     32  23  69 W9        30.33S WCI  24

$$




USA.gov is the U.S. government's official web portal to all federal, state and local government web resources and services.